{"data":{"norad_id":62760,"epoch":"2026-05-24T22:48:08.208000Z","epoch_age_seconds":72632,"freshness":"FRESH","line1":"1 62760U 25015C   26144.95009500  .00020520  00000+0  61655-3 0  9993","line2":"2 62760  53.1601 327.7314 0000914  96.7977 263.3129 15.34412644 75401","mean_motion":15.34412644,"eccentricity":9.14e-5,"inclination_deg":53.1601,"raan_deg":327.7314,"arg_perigee_deg":96.7977,"mean_anomaly_deg":263.3129,"bstar":0.00061655,"rev_number":7540,"period_min":93.846984748908,"perigee_km":462.04041046946,"apogee_km":463.29090919568,"semimajor_km":6840.8026598326,"source":"CELESTRAK","updated_at":"2026-05-25T13:38:19.743359Z"}}